Regional Weather Roundup
Issued by NWS

Home | Current Version | Previous Version | Text Only | Print | Product List | Glossary On
Versions: 1 2 3 4 5 6 7 8 9 10 11 12 13 14 15 16 17 18 19 20 21 22 23 24 25 26 27 28 29 30 31 32 33 34 35 36 37 38 39 40 41 42 43 44 45 46 47 48 49 50
000
ASUS46 KLOX 260012
RWRCA

SOUTHERN CALIFORNIA WEATHER ROUNDUP
NATIONAL WEATHER SERVICE OXNARD CALIFORNIA
400 PM PST SUN JAN 25 2015

NOTE: "FAIR" INDICATES FEW OR NO CLOUDS BELOW 12,000 FEET WITH NO
SIGNIFICANT WEATHER AND/OR OBSTRUCTIONS TO VISIBILITY.

  -  STATIONS PRECEEDED BY AN ASTERISK (*) ARE NOT NWS OR FAA
     STATIONS AND ARE NOT SUBJECT TO NWS AND FAA QUALITY CONTROL.

CAZ041-042-087-260100-
LA AND ORANGE COUNTY COASTAL AREAS


CITY           SKY/WX    TMP DP  RH WIND       PRES   REMARKS
L.A. DOWNTOWN  CLOUDY    77  30  17 CALM      29.95R
L.A. AIRPORT   CLOUDY    71  40  32 W6        29.96R
LONG BEACH     CLOUDY    81  37  20 CALM      29.94S

CITY           SKY/WX    TMP DP  RH WIND       PRES   REMARKS
AVALON           N/A     72 N/A N/A NE1         N/A
FULLERTON      CLOUDY    81  30  15 CALM      29.94S
*GETTY CENTER    N/A    N/A N/A N/A W3          N/A
HAWTHORNE      CLOUDY    76  38  25 W3        29.95S
*LOS ALAMITOS  FAIR      74  48  40 S9        29.95R
*REDONDO BEACH   N/A     73  34  24 CALM      29.96S
SANTA ANA      CLOUDY    76  34  21 S12       29.95R
STA MONICA APT CLOUDY    76  35  22 CALM      29.96R
TORRANCE       PTSUNNY   75  46  35 W12       29.96S
*UCLA            N/A     77  30  18 CALM      29.94S

$$

CAZ547-548-048-260100-
LA COUNTY VALLEYS AND INLAND EMPIRE


CITY           SKY/WX    TMP DP  RH WIND       PRES   REMARKS
BURBANK        CLOUDY    76  28  17 S3        29.98R
VAN NUYS       CLOUDY    74  33  22 S6        29.98R

CITY           SKY/WX    TMP DP  RH WIND       PRES   REMARKS
CORONA AIRPORT CLOUDY    77  29  17 E9        29.98R
CHINO          CLOUDY    76  33  21 NE3       29.98R
MARCH AFB      CLOUDY    72  29  19 NE15G21   30.00S
*NORTHRIDGE      N/A     75  23  14 S3          N/A
ONTARIO        CLOUDY    78  26  14 E10G17    29.99R
*PASADENA        N/A     77  34  20 E1          N/A
POMONA         SUNNY     72  32  23 CALM      30.01R
RIVERSIDE      CLOUDY    76  25  15 E8        29.98F
SAN BERNARDINO PTSUNNY  N/A N/A N/A CALM      30.00R
*WHITEMAN AP   PTSUNNY   77  27  15 SE6       30.01
*WOODLAND HILL   N/A     75  25  15 SW2         N/A

$$

CAZ054-055-260100-
LA AND SAN BERNARDINO COUNTY MOUNTAINS


CITY           SKY/WX    TMP DP  RH WIND       PRES   REMARKS
*ACTON           N/A     68  27  21 N7G33       N/A
*BIG BEAR AIRP CLOUDY    46  21  36 E6        30.24F
*BIG PINES       N/A     47  22  37 E2          N/A
*CHILAO          N/A     59  22  24 E6G36       N/A
MT WILSON NWS    N/A     55  23  28 MISG        N/A
SANDBERG       MOSUNNY   60  27  28 E20G31    30.14F
*WARM SPRINGS    N/A     60  29  30 NE28G41     N/A

$$

CAZ028-029-059-060-099-260100-
ANTELOPE VALLEY AND SURROUNDING AREAS


CITY           SKY/WX    TMP DP  RH WIND       PRES   REMARKS
LANCASTER      PTSUNNY   67  33  28 NE9       30.09F
PALMDALE       CLOUDY    67  32  27 E14       30.09F

CITY           SKY/WX    TMP DP  RH WIND       PRES   REMARKS
29 PALMS       CLOUDY    69  29  22 N6        30.16R
BARSTOW/DAGGET PTSUNNY   71  26  18 S3        30.09F
BISHOP         SUNNY     74  18  12 S14G21    30.18F
CHINA LAKE     SUNNY     74  29  19 E8        30.09F
EDWARDS AFB    PTSUNNY   67  34  29 E2        30.08S
MOJAVE         FAIR      66  28  24 NE6       30.11F
NEEDLES        MOSUNNY   75  29  18 N15G24    30.03S
VICTORVILLE    CLOUDY    66  27  22 NE8       30.12S

$$

CAZ039-040-260100-
VENTURA AND SANTA BARBARA COUNTY COAST


CITY           SKY/WX    TMP DP  RH WIND       PRES   REMARKS
CAMARILLO      CLOUDY    79  37  22 NE12      29.95S
NWS OXNARD       N/A     78  36  22 CALM      29.94F
OXNARD AIRPORT CLOUDY    74  41  30 NW3       29.95S
*POINT MUGU    CLOUDY    68  53  58 S10       29.97S
SBA APT/GOLETA PTSUNNY   74  34  23 W6        29.95S
*SANTA BARBARA   N/A     79  31  17 CALM      30.03R
*VENTURA         N/A     80  36  21 E13       29.99S

$$

CAZ044-045-260100-
VENTURA COUNTY VALLEYS


CITY           SKY/WX    TMP DP  RH WIND       PRES   REMARKS
*SIMI VALLEY     N/A     76  34  22 E7        29.92R
*OJAI            N/A     76  40  27 CALM      29.92R
*FILLMORE        N/A     79  41  26 E2        29.85R

$$

CAZ053-260100-
VENTURA COUNTY MOUNTAINS


CITY           SKY/WX    TMP DP  RH WIND       PRES   REMARKS
*LOCKWOOD VLY    N/A     57  23  26 MISG        N/A
*ROSE VALLEY     N/A     68  32  26 MISG        N/A

$$

CAZ034-035-036-260100-
CENTRAL COAST AND SANTA YNEZ VALLEY


CITY           SKY/WX    TMP DP  RH WIND       PRES   REMARKS
SAN LUIS OBISP SUNNY     71  32  23 SE7       29.96R
SANTA MARIA    SUNNY     75  27  17 SW12      29.97S

CITY           SKY/WX    TMP DP  RH WIND       PRES   REMARKS
*CAL POLY SLO    N/A     75  37  25 SE7G22      N/A
*LOMPOC        SUNNY     75  30  19 W6        29.97S
*PISMO BEACH     N/A     66  44  44 CALM      29.98R
*SANTA YNEZ    FAIR      72  37  28 W7        29.98R

$$

CAZ037-038-051-260100-
SAN LUIS OBISPO COUNTY INTERIOR AND CUYAMA VALLEY


CITY           SKY/WX    TMP DP  RH WIND       PRES   REMARKS
*CUYAMA          N/A     68  30  24 SE6       29.98R
PASO ROBLES    SUNNY     77  38  24 CALM      30.00S

$$

CAZ032-033-061-260100-
SOUTHERN DESERTS


CITY           SKY/WX    TMP DP  RH WIND       PRES   REMARKS
BLYTHE         PTSUNNY   74  34  23 SE5       30.02R
IMPERIAL       PTSUNNY   75  30  19 CALM      29.99F
PALM SPRINGS   CLOUDY    81  25  12 NW7       30.02F
THERMAL        PTSUNNY   82  26  13 W7        29.97S

$$

ELSEWHERE ACROSS THE WESTERN UNITED STATES AND MEXICO


CITY           SKY/WX    TMP DP  RH WIND       PRES   REMARKS
DENVER, CO     PTCLDY    53  24  32 W8        30.13R
GRAND CANYON,  CLEAR     50  21  32 E10       30.32S
HONOLULU, HI   PTSUNNY   75  63  64 NE20G29   29.97F
KAHULUI, MAUI  LGT RAIN  70  66  88 NE17      30.00F FOG
LAKE TAHOE, CA SUNNY     59  24  26 CALM      30.26S
LAS VEGAS, NV  PTCLDY    73  31  21 W3        30.11F
MAMMOTH LAKES, FAIR      59  16  18 E16G23    30.32F
MEXICO CITY, M CLOUDY    66  39  37 NW7       30.27R
PHOENIX, AZ    MOCLDY    74  23  15 SE5       30.01S
PORTLAND, OR   PTCLDY    49  49 100 W5        30.06F
RENO, NV       MOSUNNY   61  26  26 E13       30.28R
SALT LAKE CITY PTCLDY    47  33  58 NW8       30.41S
SAN DIEGO, CA  CLOUDY    74  27  17 N6        29.98R
SAN FRANCISCO, SUNNY     59  50  72 CALM      30.02F
SAN JOSE, CA   SUNNY     63  43  48 W5        30.02F
SEATTLE, WA    MOCLDY    63  50  62 NE5       30.08F
TIJUANA, MEX   PTSUNNY   75  18  11 E13       30.00R

$$

STATION/POSITION TIME  TEMP    WIND        PRES    VSBY  WAVE
                       AIR SEA DIR/SP/G                  HT/PER
                 (UTC) (F)     (DEG/KT/KT) (MB)    (MI)  (FT/S)
POINT ARGUELLO B NOT AVBL
WEST SANTA BARBA 0000   64 61  350/  4/  6 1013.7F         7/15
POINT CONCEPTION NOT AVBL
EAST SANTA BARBA NOT AVBL
SANTA MONICA BAY 0000   68 63   CALM  /  2 1014.9R         3/14



USA.gov is the U.S. government's official web portal to all federal, state and local government web resources and services.